Zurück zum Katalog

QIANFAN-15

AktivKommunikationPO
NORAD 60393·PAYLOAD·🇨🇳 China

Gestartet Aug 6, 2024 von Taiyuan Satellite Launch Center

Loading…

Nächste Überflüge (nächste 24 Stunden)

TLE

AktuellSource: Space-Track

Epoche: Sep 14, 2026, 13:27 UTC

1 60393U 24140Q   26257.56076496  .00000026  00000-0  21567-4 0  9990
2 60393  88.9662 270.6289 0014390 114.2288 246.0368 13.51027977104500

Verfolge QIANFAN-15 in Echtzeit mit AllMySat

Download on the App Store